FW8343 Weather Reports


Display with metric or nautical units.
time (UTC)temp
F
wind
direction
speed
MPH
gust
MPH
rain 1hr
in
rain 24hr
in
rain mn
in
humidity
%
barometer
mb
20260503201011 67 263 2.0 11.0 0.00 0.00 0.00 32 1004.0
20260503200514 67 296 4.0 11.0 0.00 0.00 0.00 29 1004.0
20260503200028 67 265 4.0 9.0 0.00 0.00 0.00 33 1003.8
20260503195509 67 240 2.0 10.0 0.00 0.00 0.00 32 1003.9
20260503195014 68 238 5.0 10.0 0.00 0.00 0.00 32 1004.0
20260503194533 68 233 2.0 12.0 0.00 0.00 0.00 33 1004.0
20260503194009 68 267 2.0 12.0 0.00 0.00 0.00 33 1004.0
20260503193511 67 296 3.0 14.0 0.00 0.00 0.00 35 1004.0
20260503193029 68 295 3.0 14.0 0.00 0.00 0.00 32 1004.1
20260503192509 68 280 4.0 14.0 0.00 0.00 0.00 32 1004.2
20260503192010 67 245 2.0 14.0 0.00 0.00 0.00 34 1004.1
20260503191536 68 220 6.0 14.0 0.00 0.00 0.00 30 1004.1
20260503191007 68 265 4.0 14.0 0.00 0.00 0.00 34 1004.2
20260503190511 68 288 4.0 14.0 0.00 0.00 0.00 33 1004.2
20260503190028 67 281 4.0 11.0 0.00 0.00 0.00 36 1004.3
20260503185510 67 305 1.0 10.0 0.00 0.00 0.00 36 1004.3
20260503185011 68 263 4.0 10.0 0.00 0.00 0.00 36 1004.4
20260503184530 68 294 4.0 10.0 0.00 0.00 0.00 38 1004.4
20260503184010 67 262 4.0 10.0 0.00 0.00 0.00 36 1004.3
20260503183514 67 313 2.0 13.0 0.00 0.00 0.00 37 1004.4
20260503183029 67 236 2.0 14.0 0.00 0.00 0.00 41 1004.5
20260503182507 67 268 5.0 14.0 0.00 0.00 0.00 37 1004.3
20260503182013 67 265 3.0 14.0 0.00 0.00 0.00 39 1004.4
20260503181529 67 300 2.0 12.0 0.00 0.00 0.00 42 1004.6
20260503181012 67 270 4.0 12.0 0.00 0.00 0.00 38 1004.6
20260503180515 66 274 2.0 11.0 0.00 0.00 0.00 41 1004.6
20260503180043 67 279 5.0 11.0 0.00 0.00 0.00 40 1004.8
20260503175510 67 274 2.0 11.0 0.00 0.00 0.00 43 1004.8
20260503175013 66 275 4.0 11.0 0.00 0.00 0.00 41 1004.9
20260503174532 66 299 3.0 11.0 0.00 0.00 0.00 40 1004.8
20260503174010 65 288 2.0 13.0 0.00 0.00 0.00 42 1005.0
20260503173512 65 321 2.0 13.0 0.00 0.00 0.00 42 1005.1
20260503173030 65 290 3.0 9.0 0.00 0.00 0.00 44 1004.9
20260503172512 65 272 4.0 9.0 0.00 0.00 0.00 43 1005.1
20260503172011 64 276 2.0 8.0 0.00 0.00 0.00 44 1005.1
20260503171530 65 296 3.0 10.0 0.00 0.00 0.00 45 1005.1
20260503171012 64 300 3.0 11.0 0.00 0.00 0.00 47 1005.1
20260503170512 65 303 2.0 11.0 0.00 0.00 0.00 44 1005.1
20260503151009 62 258 2.0 8.0 0.00 0.00 0.00 52 1005.2
20260503150511 61 250 2.0 6.0 0.00 0.00 0.00 52 1005.1
20260503131009 52 215 0.0 3.0 0.00 0.00 0.00 71 1005.5
20260503130511 51 215 1.0 3.0 0.00 0.00 0.00 73 1005.6
20260503110510 47 0 0.0 0.0 0.00 0.00 0.00 78 1005.2
20260503090512 51 164 1.0 5.0 0.00 0.00 0.00 75 1006.1
20260503081532 52 0 0.0 4.0 0.00 0.00 0.00 75 1006.9
20260503081009 52 190 1.0 5.0 0.00 0.00 0.00 73 1006.9
20260503080512 52 190 1.0 8.0 0.00 0.00 0.00 73 1007.0
20260503072510 52 215 0.0 4.0 0.00 0.00 0.00 75 1007.8
20260503072015 52 0 1.0 4.0 0.00 0.00 0.00 74 1007.8
20260503071532 52 215 2.0 5.0 0.00 0.00 0.00 74 1007.9
20260503071011 52 215 3.0 5.0 0.00 0.00 0.00 74 1007.9
20260503070512 52 215 3.0 5.0 0.00 0.00 0.00 73 1008.0
20260503060104 53 0 0.0 4.0 0.00 0.00 0.00 65 1008.8
20260503055013 53 265 2.0 4.0 0.00 0.00 0.00 63 1008.9
20260503054536 53 265 1.0 7.0 0.00 0.00 0.00 63 1008.9
20260503054010 53 265 2.0 7.0 0.00 0.00 0.00 63 1009.1
20260503053513 53 273 2.0 7.0 0.00 0.00 0.00 63 1009.0
20260503053032 54 0 1.0 3.0 0.00 0.00 0.00 64 1009.0
20260503052509 54 260 1.0 3.0 0.00 0.00 0.00 64 1009.0
20260503052013 54 260 0.0 4.0 0.00 0.00 0.00 63 1008.9
20260503051529 54 260 1.0 6.0 0.00 0.00 0.00 62 1009.0
20260503051009 54 242 2.0 6.0 0.00 0.00 0.00 62 1008.9
20260503050511 54 236 2.0 6.0 0.00 0.00 0.00 61 1009.0
20260503050033 55 254 1.0 5.0 0.00 0.00 0.00 61 1008.9
20260503045510 55 238 2.0 7.0 0.00 0.00 0.00 61 1008.9
20260503045011 55 0 1.0 7.0 0.00 0.00 0.00 60 1008.9
20260503044529 55 233 2.0 9.0 0.00 0.00 0.00 60 1009.0
20260503044011 55 279 2.0 9.0 0.00 0.00 0.00 60 1008.9
20260503043510 55 225 4.0 12.0 0.00 0.00 0.00 59 1008.9
20260503043040 55 0 4.0 12.0 0.00 0.00 0.00 59 1008.9
20260503042513 55 211 5.0 12.0 0.00 0.00 0.00 57 1009.0
20260503042017 55 226 4.0 10.0 0.00 0.00 0.00 57 1008.9
20260503041530 55 219 4.0 10.0 0.00 0.00 0.00 56 1009.0
20260503041016 55 205 3.0 10.0 0.00 0.00 0.00 57 1009.1
20260503040510 55 219 4.0 10.0 0.00 0.00 0.00 57 1009.2
20260503040028 55 225 3.0 7.0 0.00 0.00 0.00 60 1009.2
20260503035510 55 227 2.0 7.0 0.00 0.00 0.00 58 1009.2
20260503035010 55 227 1.0 5.0 0.00 0.00 0.00 55 1009.2
20260503034528 55 227 0.0 5.0 0.00 0.00 0.00 57 1009.2
20260503034006 55 205 1.0 7.0 0.00 0.00 0.00 60 1009.3
20260503033514 56 228 3.0 8.0 0.00 0.00 0.00 60 1009.3
20260503033034 56 222 4.0 10.0 0.00 0.00 0.00 58 1009.2
20260503032511 55 226 4.0 10.0 0.00 0.00 0.00 59 1009.4
20260503032016 55 280 3.0 8.0 0.00 0.00 0.00 57 1009.6
20260503031530 54 263 3.0 8.0 0.00 0.00 0.00 54 1009.6
20260503031011 54 211 3.0 8.0 0.00 0.00 0.00 55 1009.6
20260503030509 54 212 1.0 8.0 0.00 0.00 0.00 57 1009.8
20260503030030 54 225 2.0 6.0 0.00 0.00 0.00 54 1009.9
20260503025510 54 226 2.0 6.0 0.00 0.00 0.00 54 1009.9
20260503025008 54 210 1.0 6.0 0.00 0.00 0.00 58 1010.0
20260503024531 54 205 2.0 6.0 0.00 0.00 0.00 57 1009.9
20260503024010 54 197 3.0 7.0 0.00 0.00 0.00 55 1009.9
20260503023514 54 190 2.0 10.0 0.00 0.00 0.00 58 1009.8
20260503023029 54 185 3.0 10.0 0.00 0.00 0.00 58 1009.8
20260503022508 54 194 5.0 10.0 0.00 0.00 0.00 54 1009.9
20260503022014 54 196 2.0 7.0 0.00 0.00 0.00 55 1010.0
20260503021541 54 196 3.0 8.0 0.00 0.00 0.00 53 1009.9
20260503021009 54 181 3.0 9.0 0.00 0.00 0.00 55 1010.0
20260503020509 55 195 5.0 9.0 0.00 0.00 0.00 55 1010.0
20260503020030 55 172 4.0 9.0 0.00 0.00 0.00 54 1010.0
20260503015516 55 183 5.0 9.0 0.00 0.00 0.00 56 1010.0
20260503015013 55 180 5.0 8.0 0.00 0.00 0.00 57 1010.1
20260503014529 55 184 4.0 7.0 0.00 0.00 0.00 55 1010.0
20260503014011 55 186 3.0 6.0 0.00 0.00 0.00 55 1010.1
20260503013512 55 171 3.0 6.0 0.00 0.00 0.00 54 1010.0
20260503013031 55 180 2.0 6.0 0.00 0.00 0.00 56 1010.1
20260503012509 55 180 3.0 6.0 0.00 0.00 0.00 55 1010.0
20260503012015 55 195 4.0 6.0 0.00 0.00 0.00 56 1010.1
20260503011532 55 193 3.0 6.0 0.00 0.00 0.00 55 1010.1
20260503011010 56 194 3.0 7.0 0.00 0.00 0.00 54 1010.1
20260503010513 56 194 3.0 7.0 0.00 0.00 0.00 53 1010.2
20260503010030 56 199 3.0 7.0 0.00 0.00 0.00 51 1010.1
20260503005509 56 194 1.0 7.0 0.00 0.00 0.00 50 1010.2
20260503005013 56 202 2.0 7.0 0.00 0.00 0.00 51 1010.3
20260503004528 57 213 1.0 8.0 0.00 0.00 0.00 49 1010.3
20260503004008 57 223 2.0 10.0 0.00 0.00 0.00 46 1010.4
20260503003509 57 229 4.0 10.0 0.00 0.00 0.00 46 1010.4
20260503003039 57 213 4.0 10.0 0.00 0.00 0.00 47 1010.4
20260503002509 57 221 4.0 15.0 0.00 0.00 0.00 47 1010.5
20260503002010 57 227 5.0 15.0 0.00 0.00 0.00 46 1010.6
20260503001535 57 218 3.0 8.0 0.00 0.00 0.00 47 1010.6
20260503001012 57 226 1.0 8.0 0.00 0.00 0.00 51 1010.6
20260503000511 57 221 3.0 9.0 0.00 0.00 0.00 48 1010.7
20260503000029 57 223 4.0 9.0 0.00 0.00 0.00 47 1010.8
20260502235510 57 194 4.0 9.0 0.00 0.00 0.00 46 1010.8
20260502235014 57 221 4.0 9.0 0.00 0.00 0.00 49 1010.9
20260502234529 57 237 0.0 6.0 0.00 0.00 0.00 46 1010.9
20260502234009 57 210 2.0 8.0 0.00 0.00 0.00 49 1011.0
20260502233509 57 240 3.0 10.0 0.00 0.00 0.00 43 1011.0
20260502233028 57 263 2.0 10.0 0.00 0.00 0.00 44 1011.2
20260502232508 57 202 3.0 18.0 0.00 0.00 0.00 49 1011.2
20260502232009 57 225 7.0 20.0 0.00 0.00 0.00 43 1011.2
20260502231528 57 208 9.0 20.0 0.00 0.00 0.00 45 1011.4
20260502231008 58 203 6.0 12.0 0.00 0.00 0.00 42 1011.2
20260502230513 58 269 4.0 10.0 0.00 0.00 0.00 43 1011.2
20260502230031 58 226 4.0 11.0 0.00 0.00 0.00 41 1011.2
20260502225511 58 227 4.0 11.0 0.00 0.00 0.00 43 1011.2
20260502225014 59 277 3.0 10.0 0.00 0.00 0.00 40 1011.3
20260502224535 58 273 3.0 10.0 0.00 0.00 0.00 42 1011.3
20260502224010 58 299 4.0 13.0 0.00 0.00 0.00 42 1011.3
20260502223512 58 215 5.0 14.0 0.00 0.00 0.00 41 1011.4
20260502223031 57 215 3.0 14.0 0.00 0.00 0.00 44 1011.5
20260502222512 58 220 3.0 15.0 0.00 0.00 0.00 41 1011.6
20260502222015 58 240 5.0 15.0 0.00 0.00 0.00 39 1011.5
20260502221531 58 227 3.0 11.0 0.00 0.00 0.00 38 1011.6
20260502221010 57 232 3.0 13.0 0.00 0.00 0.00 40 1011.6
20260502220515 57 194 4.0 13.0 0.00 0.00 0.00 45 1011.7
20260502220034 57 226 3.0 9.0 0.00 0.00 0.00 40 1011.7
20260502215509 57 221 4.0 9.0 0.00 0.00 0.00 38 1011.7
20260502215010 57 207 1.0 6.0 0.00 0.00 0.00 41 1011.8
20260502214528 57 198 1.0 8.0 0.00 0.00 0.00 39 1011.8
20260502214013 57 228 1.0 9.0 0.00 0.00 0.00 35 1011.9
20260502213514 58 211 4.0 9.0 0.00 0.00 0.00 36 1012.0
20260502213033 58 221 2.0 8.0 0.00 0.00 0.00 45 1012.0
20260502212511 57 273 3.0 11.0 0.00 0.00 0.00 37 1012.1
20260502212014 57 277 4.0 11.0 0.00 0.00 0.00 37 1012.2
20260502211531 58 201 4.0 11.0 0.00 0.00 0.00 42 1012.2
20260502211009 59 228 3.0 8.0 0.00 0.00 0.00 36 1012.2
20260502210509 58 294 2.0 10.0 0.00 0.00 0.00 36 1012.2
20260502210031 59 213 3.0 10.0 0.00 0.00 0.00 36 1012.3
20260502205511 59 281 4.0 11.0 0.00 0.00 0.00 36 1012.4
20260502205014 60 242 6.0 11.0 0.00 0.00 0.00 36 1012.5
20260502204535 59 300 2.0 13.0 0.00 0.00 0.00 39 1012.4
20260502204010 58 261 2.0 13.0 0.00 0.00 0.00 37 1012.5
20260502203512 58 282 2.0 11.0 0.00 0.00 0.00 38 1012.7
20260502203036 58 274 2.0 7.0 0.00 0.00 0.00 37 1012.8
20260502202510 58 333 3.0 10.0 0.00 0.00 0.00 33 1012.7
20260502202015 57 264 2.0 10.0 0.00 0.00 0.00 38 1012.7
20260502201530 57 227 4.0 10.0 0.00 0.00 0.00 38 1012.8